Time,TemperatureF,DewpointF,PressureIn,WindDirection,WindDirectionDegrees,WindSpeedMPH,WindSpeedGustMPH,Humidity,HourlyPrecipIn,Conditions,Clouds,dailyrainin,SolarRadiationWatts/m^2,SoftwareType,DateUTC
2013-05-26 00:03:00,36.0,35.0,-100.00,SE,142,2.0,7.0,98,0.01,,,1.15,0.000000,,2013-05-26 04:03:00,
2013-05-26 00:10:00,36.0,35.0,-100.00,SSE,154,2.0,5.0,98,0.00,,,1.09,0.000000,,2013-05-26 04:10:00,
2013-05-26 00:33:00,36.0,35.0,-100.00,SSE,154,2.0,5.0,98,0.00,,,1.09,0.000000,,2013-05-26 04:33:00,
2013-05-26 00:43:00,36.0,35.0,-100.00,SSE,154,2.0,5.0,98,0.00,,,1.09,0.000000,,2013-05-26 04:43:00,
2013-05-26 00:52:00,36.0,35.0,-100.00,SSE,154,2.0,5.0,98,0.00,,,1.09,0.000000,,2013-05-26 04:52:00,
2013-05-26 01:02:00,36.0,35.0,-100.00,SSE,154,2.0,5.0,98,0.00,,,1.09,0.000000,,2013-05-26 05:02:00,
2013-05-26 01:10:00,36.0,35.0,-100.00,South,173,2.0,5.0,97,0.04,,,1.12,0.000000,,2013-05-26 05:10:00,
2013-05-26 01:32:00,36.0,35.0,-100.00,South,173,2.0,5.0,97,0.04,,,1.12,0.000000,,2013-05-26 05:32:00,
2013-05-26 01:42:00,36.0,35.0,-100.00,South,173,2.0,5.0,97,0.04,,,1.12,0.000000,,2013-05-26 05:42:00,
2013-05-26 01:52:00,36.0,35.0,-100.00,South,173,2.0,5.0,97,0.04,,,1.12,0.000000,,2013-05-26 05:52:00,
2013-05-26 02:01:00,36.0,35.0,-100.00,South,173,2.0,5.0,97,0.04,,,1.12,0.000000,,2013-05-26 06:01:00,
2013-05-26 02:10:00,35.0,34.0,-100.00,SE,132,2.0,4.0,98,0.09,,,1.20,0.000000,,2013-05-26 06:10:00,
2013-05-26 02:32:00,35.0,34.0,-100.00,SE,132,2.0,4.0,98,0.09,,,1.20,0.000000,,2013-05-26 06:32:00,
2013-05-26 02:42:00,35.0,34.0,-100.00,SE,132,2.0,4.0,98,0.09,,,1.20,0.000000,,2013-05-26 06:42:00,
2013-05-26 02:52:00,35.0,34.0,-100.00,SE,132,2.0,4.0,98,0.09,,,1.20,0.000000,,2013-05-26 06:52:00,
2013-05-26 03:02:00,35.0,34.0,-100.00,SE,132,2.0,4.0,98,0.09,,,1.20,0.000000,,2013-05-26 07:02:00,
2013-05-26 03:10:00,35.0,35.0,-100.00,SSE,153,1.0,4.0,99,0.06,,,1.17,0.000000,,2013-05-26 07:10:00,
2013-05-26 03:32:00,35.0,35.0,-100.00,SSE,153,1.0,4.0,99,0.06,,,1.17,0.000000,,2013-05-26 07:32:00,
2013-05-26 03:42:00,35.0,35.0,-100.00,SSE,153,1.0,4.0,99,0.06,,,1.17,0.000000,,2013-05-26 07:42:00,
2013-05-26 03:52:00,35.0,35.0,-100.00,SSE,153,1.0,4.0,99,0.06,,,1.17,0.000000,,2013-05-26 07:52:00,
2013-05-26 04:01:00,35.0,35.0,-100.00,SSE,153,1.0,4.0,99,0.06,,,1.17,0.000000,,2013-05-26 08:01:00,
2013-05-26 04:10:00,35.0,35.0,-100.00,SSE,150,0.0,4.0,99,0.05,,,1.21,0.000000,,2013-05-26 08:10:00,
2013-05-26 04:32:00,35.0,35.0,-100.00,SSE,150,0.0,4.0,99,0.05,,,1.21,0.000000,,2013-05-26 08:32:00,
2013-05-26 04:42:00,35.0,35.0,-100.00,SSE,150,0.0,4.0,99,0.05,,,1.21,0.000000,,2013-05-26 08:42:00,
2013-05-26 04:53:00,35.0,35.0,-100.00,SSE,150,0.0,4.0,99,0.05,,,1.21,0.000000,,2013-05-26 08:53:00,
2013-05-26 05:01:00,35.0,35.0,-100.00,SSE,150,0.0,4.0,99,0.05,,,1.21,0.000000,,2013-05-26 09:01:00,
2013-05-26 05:10:00,35.0,35.0,-100.00,East,93,1.0,2.0,99,0.00,,,1.17,0.000000,,2013-05-26 09:10:00,
2013-05-26 05:34:00,35.0,35.0,-100.00,East,93,1.0,2.0,99,0.00,,,1.17,0.000000,,2013-05-26 09:34:00,
2013-05-26 05:43:00,35.0,35.0,-100.00,East,93,1.0,2.0,99,0.00,,,1.17,0.000000,,2013-05-26 09:43:00,
2013-05-26 05:53:00,35.0,35.0,-100.00,East,93,1.0,2.0,99,0.00,,,1.17,0.000000,,2013-05-26 09:53:00,
2013-05-26 06:03:00,35.0,35.0,-100.00,East,93,1.0,2.0,99,0.00,,,1.17,0.000000,,2013-05-26 10:03:00,
2013-05-26 06:10:00,36.0,36.0,-100.00,East,81,1.0,2.0,99,0.01,,,1.15,10.000000,,2013-05-26 10:10:00,
2013-05-26 06:33:00,36.0,36.0,-100.00,East,81,1.0,2.0,99,0.01,,,1.15,10.000000,,2013-05-26 10:33:00,
2013-05-26 06:42:00,36.0,36.0,-100.00,East,81,1.0,2.0,99,0.01,,,1.15,10.000000,,2013-05-26 10:42:00,
2013-05-26 06:52:00,36.0,36.0,-100.00,East,81,1.0,2.0,99,0.01,,,1.15,10.000000,,2013-05-26 10:52:00,
2013-05-26 07:03:00,36.0,36.0,-100.00,East,81,1.0,2.0,99,0.01,,,1.15,10.000000,,2013-05-26 11:03:00,
2013-05-26 07:10:00,38.0,38.0,-100.00,SSW,206,1.0,3.0,99,0.01,,,1.06,21.000000,,2013-05-26 11:10:00,
2013-05-26 07:32:00,38.0,38.0,-100.00,SSW,206,1.0,3.0,99,0.01,,,1.06,21.000000,,2013-05-26 11:32:00,
2013-05-26 07:42:00,38.0,38.0,-100.00,SSW,206,1.0,3.0,99,0.01,,,1.06,21.000000,,2013-05-26 11:42:00,
2013-05-26 07:52:00,38.0,38.0,-100.00,SSW,206,1.0,3.0,99,0.01,,,1.06,21.000000,,2013-05-26 11:52:00,
2013-05-26 08:02:00,38.0,38.0,-100.00,SSW,206,1.0,3.0,99,0.01,,,1.06,21.000000,,2013-05-26 12:02:00,
2013-05-26 08:10:00,40.0,39.0,-100.00,WSW,257,1.0,5.0,98,0.00,,,0.94,88.000000,,2013-05-26 12:10:00,
2013-05-26 08:32:00,40.0,39.0,-100.00,WSW,257,1.0,5.0,98,0.00,,,0.94,88.000000,,2013-05-26 12:32:00,
2013-05-26 08:42:00,40.0,39.0,-100.00,WSW,257,1.0,5.0,98,0.00,,,0.94,88.000000,,2013-05-26 12:42:00,
2013-05-26 08:52:00,40.0,39.0,-100.00,WSW,257,1.0,5.0,98,0.00,,,0.94,88.000000,,2013-05-26 12:52:00,
2013-05-26 09:02:00,40.0,39.0,-100.00,WSW,257,1.0,5.0,98,0.00,,,0.94,88.000000,,2013-05-26 13:02:00,
2013-05-26 09:10:00,40.0,38.0,-100.00,West,269,3.0,6.0,91,0.00,,,0.85,106.000000,,2013-05-26 13:10:00,
2013-05-26 09:32:00,40.0,38.0,-100.00,West,269,3.0,6.0,91,0.00,,,0.85,106.000000,,2013-05-26 13:32:00,
2013-05-26 09:42:00,40.0,38.0,-100.00,West,269,3.0,6.0,91,0.00,,,0.85,106.000000,,2013-05-26 13:42:00,
2013-05-26 09:52:00,40.0,38.0,-100.00,West,269,3.0,6.0,91,0.00,,,0.85,106.000000,,2013-05-26 13:52:00,
2013-05-26 10:02:00,40.0,38.0,-100.00,West,269,3.0,6.0,91,0.00,,,0.85,106.000000,,2013-05-26 14:02:00,
2013-05-26 10:10:00,42.0,38.0,-100.00,WSW,249,3.0,9.0,87,0.00,,,0.81,125.000000,,2013-05-26 14:10:00,
2013-05-26 10:32:00,42.0,38.0,-100.00,WSW,249,3.0,9.0,87,0.00,,,0.81,125.000000,,2013-05-26 14:32:00,
2013-05-26 10:42:00,42.0,38.0,-100.00,WSW,249,3.0,9.0,87,0.00,,,0.81,125.000000,,2013-05-26 14:42:00,
2013-05-26 10:52:00,42.0,38.0,-100.00,WSW,249,3.0,9.0,87,0.00,,,0.81,125.000000,,2013-05-26 14:52:00,
2013-05-26 11:02:00,42.0,38.0,-100.00,WSW,249,3.0,9.0,87,0.00,,,0.81,125.000000,,2013-05-26 15:02:00,
2013-05-26 11:10:00,46.0,40.0,-100.00,WSW,258,3.0,10.0,80,0.00,,,0.76,250.000000,,2013-05-26 15:10:00,
2013-05-26 11:33:00,46.0,40.0,-100.00,WSW,258,3.0,10.0,80,0.00,,,0.76,250.000000,,2013-05-26 15:33:00,
2013-05-26 11:43:00,46.0,40.0,-100.00,WSW,258,3.0,10.0,80,0.00,,,0.76,250.000000,,2013-05-26 15:43:00,
2013-05-26 11:53:00,46.0,40.0,-100.00,WSW,258,3.0,10.0,80,0.00,,,0.76,250.000000,,2013-05-26 15:53:00,
2013-05-26 12:03:00,46.0,40.0,-100.00,WSW,258,3.0,10.0,80,0.00,,,0.76,250.000000,,2013-05-26 16:03:00,
2013-05-26 12:10:00,47.0,39.0,-100.00,WNW,296,3.0,8.0,74,0.00,,,0.69,388.000000,,2013-05-26 16:10:00,
2013-05-26 12:33:00,47.0,39.0,-100.00,WNW,296,3.0,8.0,74,0.00,,,0.69,388.000000,,2013-05-26 16:33:00,
2013-05-26 12:42:00,47.0,39.0,-100.00,WNW,296,3.0,8.0,74,0.00,,,0.69,388.000000,,2013-05-26 16:42:00,
2013-05-26 12:53:00,47.0,39.0,-100.00,WNW,296,3.0,8.0,74,0.00,,,0.69,388.000000,,2013-05-26 16:53:00,
2013-05-26 13:02:00,47.0,39.0,-100.00,WNW,296,3.0,8.0,74,0.00,,,0.69,388.000000,,2013-05-26 17:02:00,
2013-05-26 13:10:00,47.0,39.0,-100.00,WSW,248,3.0,10.0,74,0.00,,,0.63,294.000000,,2013-05-26 17:10:00,
2013-05-26 13:32:00,47.0,39.0,-100.00,WSW,248,3.0,10.0,74,0.00,,,0.63,294.000000,,2013-05-26 17:32:00,
2013-05-26 13:42:00,47.0,39.0,-100.00,WSW,248,3.0,10.0,74,0.00,,,0.63,294.000000,,2013-05-26 17:42:00,
2013-05-26 13:52:00,47.0,39.0,-100.00,WSW,248,3.0,10.0,74,0.00,,,0.63,294.000000,,2013-05-26 17:52:00,
2013-05-26 14:01:00,47.0,39.0,-100.00,WSW,248,3.0,10.0,74,0.00,,,0.63,294.000000,,2013-05-26 18:01:00,
2013-05-26 14:10:00,50.0,42.0,-100.00,NW,312,4.0,8.0,75,0.00,,,0.60,318.000000,,2013-05-26 18:10:00,
2013-05-26 14:32:00,50.0,42.0,-100.00,NW,312,4.0,8.0,75,0.00,,,0.60,318.000000,,2013-05-26 18:32:00,
2013-05-26 14:42:00,50.0,42.0,-100.00,NW,312,4.0,8.0,75,0.00,,,0.60,318.000000,,2013-05-26 18:42:00,
2013-05-26 14:52:00,50.0,42.0,-100.00,NW,312,4.0,8.0,75,0.00,,,0.60,318.000000,,2013-05-26 18:52:00,
2013-05-26 15:01:00,50.0,42.0,-100.00,NW,312,4.0,8.0,75,0.00,,,0.60,318.000000,,2013-05-26 19:01:00,
2013-05-26 15:10:00,49.0,41.0,-100.00,West,267,3.0,11.0,73,0.01,,,0.61,284.000000,,2013-05-26 19:10:00,
2013-05-26 15:32:00,49.0,41.0,-100.00,West,267,3.0,11.0,73,0.01,,,0.61,284.000000,,2013-05-26 19:32:00,
2013-05-26 15:42:00,49.0,41.0,-100.00,West,267,3.0,11.0,73,0.01,,,0.61,284.000000,,2013-05-26 19:42:00,
2013-05-26 15:52:00,49.0,41.0,-100.00,West,267,3.0,11.0,73,0.01,,,0.61,284.000000,,2013-05-26 19:52:00,
2013-05-26 16:02:00,49.0,41.0,-100.00,West,267,3.0,11.0,73,0.01,,,0.61,284.000000,,2013-05-26 20:02:00,
2013-05-26 16:10:00,49.0,42.0,-100.00,NW,304,4.0,9.0,77,0.00,,,0.61,186.000000,,2013-05-26 20:10:00,
2013-05-26 16:32:00,49.0,42.0,-100.00,NW,304,4.0,9.0,77,0.00,,,0.61,186.000000,,2013-05-26 20:32:00,
2013-05-26 16:42:00,49.0,42.0,-100.00,NW,304,4.0,9.0,77,0.00,,,0.61,186.000000,,2013-05-26 20:42:00,
2013-05-26 16:53:00,49.0,42.0,-100.00,NW,304,4.0,9.0,77,0.00,,,0.61,186.000000,,2013-05-26 20:53:00,
2013-05-26 17:02:00,49.0,42.0,-100.00,NW,304,4.0,9.0,77,0.00,,,0.61,186.000000,,2013-05-26 21:02:00,
2013-05-26 17:10:00,50.0,40.0,-100.00,West,267,6.0,14.0,68,0.00,,,0.61,254.000000,,2013-05-26 21:10:00,
2013-05-26 17:33:00,50.0,40.0,-100.00,West,267,6.0,14.0,68,0.00,,,0.61,254.000000,,2013-05-26 21:33:00,
2013-05-26 17:43:00,50.0,40.0,-100.00,West,267,6.0,14.0,68,0.00,,,0.61,254.000000,,2013-05-26 21:43:00,
2013-05-26 17:53:00,50.0,40.0,-100.00,West,267,6.0,14.0,68,0.00,,,0.61,254.000000,,2013-05-26 21:53:00,
2013-05-26 18:03:00,50.0,40.0,-100.00,West,267,6.0,14.0,68,0.00,,,0.61,254.000000,,2013-05-26 22:03:00,
2013-05-26 18:10:00,52.0,41.0,-100.00,West,275,4.0,20.0,66,0.00,,,0.59,288.000000,,2013-05-26 22:10:00,
2013-05-26 18:33:00,52.0,41.0,-100.00,West,275,4.0,20.0,66,0.00,,,0.59,288.000000,,2013-05-26 22:33:00,
2013-05-26 18:42:00,52.0,41.0,-100.00,West,275,4.0,20.0,66,0.00,,,0.59,288.000000,,2013-05-26 22:42:00,
2013-05-26 18:53:00,52.0,41.0,-100.00,West,275,4.0,20.0,66,0.00,,,0.59,288.000000,,2013-05-26 22:53:00,
2013-05-26 19:02:00,52.0,41.0,-100.00,West,275,4.0,20.0,66,0.00,,,0.59,288.000000,,2013-05-26 23:02:00,
2013-05-26 19:10:00,47.0,37.0,-100.00,West,263,4.0,13.0,67,0.00,,,0.51,131.000000,,2013-05-26 23:10:00,
2013-05-26 19:32:00,47.0,37.0,-100.00,West,263,4.0,13.0,67,0.00,,,0.51,131.000000,,2013-05-26 23:32:00,
2013-05-26 19:43:00,47.0,37.0,-100.00,West,263,4.0,13.0,67,0.00,,,0.51,131.000000,,2013-05-26 23:43:00,
2013-05-26 19:52:00,47.0,37.0,-100.00,West,263,4.0,13.0,67,0.00,,,0.51,131.000000,,2013-05-26 23:52:00,
2013-05-26 20:02:00,47.0,37.0,-100.00,West,263,4.0,13.0,67,0.00,,,0.51,131.000000,,2013-05-27 00:02:00,
2013-05-26 21:10:00,44.0,37.0,-100.00,SSE,154,3.0,6.0,77,-99.99,,,0.30,1.000000,,2013-05-27 01:10:00,
2013-05-26 21:32:00,44.0,37.0,-100.00,SSE,154,3.0,6.0,77,-99.99,,,0.30,1.000000,,2013-05-27 01:32:00,
2013-05-26 21:42:00,44.0,37.0,-100.00,SSE,154,3.0,6.0,77,-99.99,,,0.30,1.000000,,2013-05-27 01:42:00,
2013-05-26 21:52:00,44.0,37.0,-100.00,SSE,154,3.0,6.0,77,-99.99,,,0.30,1.000000,,2013-05-27 01:52:00,
2013-05-26 22:02:00,44.0,37.0,-100.00,SSE,154,3.0,6.0,77,-99.99,,,0.30,1.000000,,2013-05-27 02:02:00,
2013-05-26 22:10:00,42.0,37.0,-100.00,East,99,1.0,7.0,83,0.00,,,0.28,0.000000,,2013-05-27 02:10:00,
2013-05-26 22:32:00,42.0,37.0,-100.00,East,99,1.0,7.0,83,0.00,,,0.28,0.000000,,2013-05-27 02:32:00,
2013-05-26 22:43:00,42.0,37.0,-100.00,East,99,1.0,7.0,83,0.00,,,0.28,0.000000,,2013-05-27 02:43:00,
2013-05-26 22:52:00,42.0,37.0,-100.00,East,99,1.0,7.0,83,0.00,,,0.28,0.000000,,2013-05-27 02:52:00,
2013-05-26 23:02:00,42.0,37.0,-100.00,East,99,1.0,7.0,83,0.00,,,0.28,0.000000,,2013-05-27 03:02:00,
2013-05-26 23:10:00,38.0,35.0,-100.00,East,99,2.0,3.0,90,0.00,,,0.27,0.000000,,2013-05-27 03:10:00,
2013-05-26 23:33:00,38.0,35.0,-100.00,East,99,2.0,3.0,90,0.00,,,0.27,0.000000,,2013-05-27 03:33:00,
2013-05-26 23:43:00,38.0,35.0,-100.00,East,99,2.0,3.0,90,0.00,,,0.27,0.000000,,2013-05-27 03:43:00,
2013-05-26 23:53:00,38.0,35.0,-100.00,East,99,2.0,3.0,90,0.00,,,0.27,0.000000,,2013-05-27 03:53:00,